Private Wetterstation Sandau
Wetterdaten: Montag, 22.10.2012
Datum Zeit Temp. A. Feuchte A. Luftdruck Regen Wind Richtung Richtung Taupunkt Windchill
22.10.2012 00:01 13,5 C 90 % 1022,9 hPa 0,0 l/m 12,6 km/h (3 Bft) O-NO 67 11,9 C 13,5 C
22.10.2012 00:06 13,3 C 90 % 1023,0 hPa 0,0 l/m 5,8 km/h (2 Bft) O-SO 112 11,7 C 13,3 C
22.10.2012 00:11 13,3 C 91 % 1023,0 hPa 0,0 l/m 14,8 km/h (3 Bft) O 90 11,9 C 13,3 C
22.10.2012 00:16 13,1 C 90 % 1023,0 hPa 0,0 l/m 11,2 km/h (2 Bft) O-SO 112 11,5 C 13,1 C
22.10.2012 00:21 13,1 C 90 % 1023,0 hPa 0,0 l/m 16,2 km/h (3 Bft) O 90 11,5 C 13,1 C
22.10.2012 00:26 13,1 C 90 % 1023,1 hPa 0,0 l/m 7,9 km/h (2 Bft) O-SO 112 11,5 C 13,1 C
22.10.2012 00:31 13,0 C 90 % 1023,0 hPa 0,0 l/m 8,6 km/h (2 Bft) O 90 11,4 C 13,0 C
22.10.2012 00:36 13,0 C 91 % 1023,1 hPa 0,0 l/m 10,8 km/h (2 Bft) O 90 11,6 C 13,0 C
22.10.2012 00:41 12,9 C 91 % 1023,2 hPa 0,0 l/m 10,4 km/h (2 Bft) O 90 11,5 C 12,9 C
22.10.2012 00:46 12,9 C 91 % 1023,2 hPa 0,0 l/m 4,7 km/h (1 Bft) O-SO 112 11,5 C 12,9 C
22.10.2012 00:51 12,9 C 91 % 1023,2 hPa 0,0 l/m 5,0 km/h (1 Bft) O-SO 112 11,5 C 12,9 C
22.10.2012 00:56 12,9 C 91 % 1023,3 hPa 0,0 l/m 8,6 km/h (2 Bft) O 90 11,5 C 12,9 C
22.10.2012 01:01 12,9 C 91 % 1023,4 hPa 0,0 l/m 2,9 km/h (1 Bft) O 90 11,5 C 12,9 C
22.10.2012 01:06 12,9 C 91 % 1023,3 hPa 0,0 l/m 6,5 km/h (2 Bft) O-SO 112 11,5 C 12,9 C
22.10.2012 01:11 12,9 C 91 % 1023,3 hPa 0,0 l/m 3,2 km/h (1 Bft) O-SO 112 11,5 C 12,9 C
22.10.2012 01:16 12,9 C 91 % 1023,3 hPa 0,0 l/m 0,0 km/h (0 Bft) O-NO 67 11,5 C 12,9 C
22.10.2012 01:21 12,8 C 92 % 1023,3 hPa 0,0 l/m 5,4 km/h (1 Bft) O-NO 67 11,5 C 12,8 C
22.10.2012 01:26 12,8 C 92 % 1023,2 hPa 0,0 l/m 5,8 km/h (2 Bft) O-NO 67 11,5 C 12,8 C
22.10.2012 01:31 12,8 C 92 % 1023,2 hPa 0,0 l/m 4,7 km/h (1 Bft) O-SO 112 11,5 C 12,8 C
22.10.2012 01:36 12,8 C 92 % 1023,1 hPa 0,0 l/m 4,0 km/h (1 Bft) S-SO 157 11,5 C 12,8 C
22.10.2012 01:41 12,8 C 92 % 1023,2 hPa 0,0 l/m 6,5 km/h (2 Bft) O-SO 112 11,5 C 12,8 C
22.10.2012 01:46 12,8 C 92 % 1023,2 hPa 0,0 l/m 11,2 km/h (2 Bft) O-NO 67 11,5 C 12,8 C
22.10.2012 01:51 12,8 C 92 % 1023,3 hPa 0,0 l/m 10,8 km/h (2 Bft) O 90 11,5 C 12,8 C
22.10.2012 01:56 12,8 C 92 % 1023,3 hPa 0,0 l/m 5,8 km/h (2 Bft) O-NO 67 11,5 C 12,8 C
22.10.2012 02:01 12,7 C 92 % 1023,3 hPa 0,0 l/m 5,8 km/h (2 Bft) O-NO 67 11,4 C 12,7 C
22.10.2012 02:06 12,8 C 92 % 1023,3 hPa 0,0 l/m 5,4 km/h (1 Bft) O-SO 112 11,5 C 12,8 C
22.10.2012 02:11 12,7 C 92 % 1023,4 hPa 0,0 l/m 9,0 km/h (2 Bft) O 90 11,4 C 12,7 C
22.10.2012 02:16 12,7 C 91 % 1023,5 hPa 0,0 l/m 4,0 km/h (1 Bft) O-SO 112 11,3 C 12,7 C
22.10.2012 02:21 12,8 C 91 % 1023,5 hPa 0,0 l/m 5,8 km/h (2 Bft) SO 135 11,4 C 12,8 C
22.10.2012 02:26 12,8 C 91 % 1023,6 hPa 0,0 l/m 2,5 km/h (1 Bft) O 90 11,4 C 12,8 C
22.10.2012 02:31 12,8 C 91 % 1023,6 hPa 0,0 l/m 3,6 km/h (1 Bft) O-SO 112 11,4 C 12,8 C
22.10.2012 02:36 12,8 C 91 % 1023,7 hPa 0,0 l/m 11,2 km/h (2 Bft) O-SO 112 11,4 C 12,8 C
22.10.2012 02:41 12,8 C 91 % 1023,6 hPa 0,0 l/m 11,2 km/h (2 Bft) O-SO 112 11,4 C 12,8 C
22.10.2012 02:46 12,8 C 91 % 1023,6 hPa 0,0 l/m 0,0 km/h (0 Bft) O-SO 112 11,4 C 12,8 C
22.10.2012 02:51 12,8 C 91 % 1023,6 hPa 0,0 l/m 6,5 km/h (2 Bft) O-SO 112 11,4 C 12,8 C
22.10.2012 02:56 12,8 C 91 % 1023,6 hPa 0,0 l/m 5,0 km/h (1 Bft) O-SO 112 11,4 C 12,8 C
22.10.2012 03:01 12,8 C 91 % 1023,7 hPa 0,0 l/m 9,0 km/h (2 Bft) O-SO 112 11,4 C 12,8 C
22.10.2012 03:06 12,8 C 91 % 1023,7 hPa 0,0 l/m 3,2 km/h (1 Bft) O-SO 112 11,4 C 12,8 C
22.10.2012 03:11 12,8 C 91 % 1023,7 hPa 0,0 l/m 4,7 km/h (1 Bft) O-SO 112 11,4 C 12,8 C
22.10.2012 03:16 12,8 C 91 % 1023,7 hPa 0,0 l/m 7,6 km/h (2 Bft) O-NO 67 11,4 C 12,8 C
22.10.2012 03:21 12,8 C 91 % 1023,7 hPa 0,0 l/m 1,4 km/h (1 Bft) O-NO 67 11,4 C 12,8 C
22.10.2012 03:26 12,8 C 91 % 1023,7 hPa 0,0 l/m 5,4 km/h (1 Bft) O-SO 112 11,4 C 12,8 C
22.10.2012 03:31 12,8 C 91 % 1023,7 hPa 0,0 l/m 4,3 km/h (1 Bft) O-SO 112 11,4 C 12,8 C
22.10.2012 03:36 12,8 C 91 % 1023,8 hPa 0,0 l/m 2,2 km/h (1 Bft) O 90 11,4 C 12,8 C
22.10.2012 03:41 12,8 C 91 % 1023,6 hPa 0,0 l/m 4,0 km/h (1 Bft) NO 45 11,4 C 12,8 C
22.10.2012 03:46 12,8 C 91 % 1023,6 hPa 0,0 l/m 4,0 km/h (1 Bft) O-NO 67 11,4 C 12,8 C
22.10.2012 03:51 12,8 C 91 % 1023,5 hPa 0,0 l/m 9,7 km/h (2 Bft) O-NO 67 11,4 C 12,8 C
22.10.2012 03:56 12,8 C 91 % 1023,5 hPa 0,0 l/m 6,5 km/h (2 Bft) O-SO 112 11,4 C 12,8 C
22.10.2012 04:01 12,8 C 91 % 1023,6 hPa 0,0 l/m 6,1 km/h (2 Bft) SO 135 11,4 C 12,8 C
22.10.2012 04:06 12,7 C 91 % 1023,7 hPa 0,0 l/m 5,8 km/h (2 Bft) O-NO 67 11,3 C 12,7 C
22.10.2012 04:11 12,7 C 91 % 1023,7 hPa 0,0 l/m 3,2 km/h (1 Bft) O-SO 112 11,3 C 12,7 C
22.10.2012 04:16 12,7 C 91 % 1023,6 hPa 0,0 l/m 1,4 km/h (1 Bft) O-NO 67 11,3 C 12,7 C
22.10.2012 04:21 12,7 C 91 % 1023,6 hPa 0,0 l/m 4,0 km/h (1 Bft) O-SO 112 11,3 C 12,7 C
22.10.2012 04:26 12,8 C 91 % 1023,7 hPa 0,0 l/m 5,0 km/h (1 Bft) O-SO 112 11,4 C 12,8 C
22.10.2012 04:31 12,8 C 91 % 1023,8 hPa 0,0 l/m 5,8 km/h (2 Bft) O 90 11,4 C 12,8 C
22.10.2012 04:36 12,8 C 91 % 1023,6 hPa 0,0 l/m 6,1 km/h (2 Bft) O-SO 112 11,4 C 12,8 C
22.10.2012 04:41 12,8 C 91 % 1023,7 hPa 0,0 l/m 10,1 km/h (2 Bft) O-SO 112 11,4 C 12,8 C
22.10.2012 04:46 12,8 C 91 % 1023,6 hPa 0,0 l/m 8,6 km/h (2 Bft) O-SO 112 11,4 C 12,8 C
22.10.2012 04:51 12,8 C 91 % 1023,6 hPa 0,0 l/m 4,0 km/h (1 Bft) O-SO 112 11,4 C 12,8 C
22.10.2012 04:56 12,8 C 91 % 1023,6 hPa 0,0 l/m 11,5 km/h (2 Bft) O-SO 112 11,4 C 12,8 C
22.10.2012 05:01 12,8 C 91 % 1023,4 hPa 0,0 l/m 6,8 km/h (2 Bft) O-NO 67 11,4 C 12,8 C
22.10.2012 05:06 12,8 C 91 % 1023,5 hPa 0,0 l/m 4,7 km/h (1 Bft) O-SO 112 11,4 C 12,8 C
22.10.2012 05:11 12,8 C 91 % 1023,5 hPa 0,0 l/m 5,8 km/h (2 Bft) SO 135 11,4 C 12,8 C
22.10.2012 05:16 12,8 C 91 % 1023,4 hPa 0,0 l/m 4,0 km/h (1 Bft) O-NO 67 11,4 C 12,8 C
22.10.2012 05:21 12,8 C 91 % 1023,6 hPa 0,0 l/m 3,2 km/h (1 Bft) O-SO 112 11,4 C 12,8 C
22.10.2012 05:26 12,8 C 91 % 1023,6 hPa 0,0 l/m 6,1 km/h (2 Bft) O 90 11,4 C 12,8 C
22.10.2012 05:31 12,8 C 92 % 1023,5 hPa 0,0 l/m 4,7 km/h (1 Bft) O-NO 67 11,5 C 12,8 C
22.10.2012 05:36 12,8 C 92 % 1023,6 hPa 0,0 l/m 5,4 km/h (1 Bft) O 90 11,5 C 12,8 C
22.10.2012 05:41 12,8 C 92 % 1023,7 hPa 0,0 l/m 2,5 km/h (1 Bft) O-NO 67 11,5 C 12,8 C
22.10.2012 05:46 12,8 C 92 % 1023,7 hPa 0,0 l/m 3,6 km/h (1 Bft) SO 135 11,5 C 12,8 C
22.10.2012 05:51 12,8 C 92 % 1023,8 hPa 0,0 l/m 5,4 km/h (1 Bft) O-SO 112 11,5 C 12,8 C
22.10.2012 05:56 12,8 C 92 % 1023,9 hPa 0,0 l/m 0,0 km/h (0 Bft) O-SO 112 11,5 C 12,8 C
22.10.2012 06:01 12,8 C 92 % 1023,8 hPa 0,0 l/m 4,3 km/h (1 Bft) O-SO 112 11,5 C 12,8 C
22.10.2012 06:06 12,8 C 92 % 1023,8 hPa 0,0 l/m 13,7 km/h (3 Bft) SO 135 11,5 C 12,8 C
22.10.2012 06:11 12,9 C 92 % 1023,8 hPa 0,0 l/m 4,0 km/h (1 Bft) NO 45 11,6 C 12,9 C
22.10.2012 06:16 12,9 C 91 % 1023,8 hPa 0,0 l/m 3,2 km/h (1 Bft) O-NO 67 11,5 C 12,9 C
22.10.2012 06:21 12,9 C 91 % 1023,8 hPa 0,0 l/m 2,5 km/h (1 Bft) O-SO 112 11,5 C 12,9 C
22.10.2012 06:26 12,9 C 91 % 1024,0 hPa 0,0 l/m 1,1 km/h (1 Bft) O-SO 112 11,5 C 12,9 C
22.10.2012 06:31 12,9 C 91 % 1024,0 hPa 0,0 l/m 0,0 km/h (0 Bft) O-SO 112 11,5 C 12,9 C
22.10.2012 06:36 12,9 C 91 % 1024,1 hPa 0,0 l/m 2,2 km/h (1 Bft) SO 135 11,5 C 12,9 C
22.10.2012 06:41 12,9 C 91 % 1024,1 hPa 0,0 l/m 0,0 km/h (0 Bft) O-SO 112 11,5 C 12,9 C
22.10.2012 06:46 12,9 C 91 % 1024,1 hPa 0,0 l/m 3,2 km/h (1 Bft) O 90 11,5 C 12,9 C
22.10.2012 06:51 12,9 C 91 % 1024,2 hPa 0,0 l/m 5,8 km/h (2 Bft) SO 135 11,5 C 12,9 C
22.10.2012 06:56 12,9 C 91 % 1024,3 hPa 0,0 l/m 3,2 km/h (1 Bft) SO 135 11,5 C 12,9 C
22.10.2012 07:01 12,9 C 91 % 1024,3 hPa 0,0 l/m 2,2 km/h (1 Bft) O-SO 112 11,5 C 12,9 C
22.10.2012 07:06 12,9 C 91 % 1024,3 hPa 0,0 l/m 8,3 km/h (2 Bft) SO 135 11,5 C 12,9 C
22.10.2012 07:11 12,9 C 91 % 1024,4 hPa 0,0 l/m 3,2 km/h (1 Bft) O-SO 112 11,5 C 12,9 C
22.10.2012 07:16 12,9 C 91 % 1024,4 hPa 0,0 l/m 3,6 km/h (1 Bft) O-SO 112 11,5 C 12,9 C
22.10.2012 07:21 12,9 C 91 % 1024,4 hPa 0,0 l/m 3,6 km/h (1 Bft) O 90 11,5 C 12,9 C
22.10.2012 07:26 12,9 C 91 % 1024,4 hPa 0,0 l/m 3,2 km/h (1 Bft) O-NO 67 11,5 C 12,9 C
22.10.2012 07:31 12,9 C 91 % 1024,5 hPa 0,0 l/m 10,1 km/h (2 Bft) O-SO 112 11,5 C 12,9 C
22.10.2012 07:36 12,9 C 91 % 1024,6 hPa 0,0 l/m 2,9 km/h (1 Bft) O-SO 112 11,5 C 12,9 C
22.10.2012 07:41 12,9 C 91 % 1024,7 hPa 0,0 l/m 6,1 km/h (2 Bft) O 90 11,5 C 12,9 C
22.10.2012 07:46 12,9 C 91 % 1024,7 hPa 0,0 l/m 2,2 km/h (1 Bft) O 90 11,5 C 12,9 C
22.10.2012 07:51 12,9 C 91 % 1024,7 hPa 0,0 l/m 4,3 km/h (1 Bft) SO 135 11,5 C 12,9 C
22.10.2012 07:56 12,9 C 91 % 1024,8 hPa 0,0 l/m 3,6 km/h (1 Bft) O 90 11,5 C 12,9 C
22.10.2012 08:01 12,9 C 91 % 1024,7 hPa 0,0 l/m 1,8 km/h (1 Bft) O-SO 112 11,5 C 12,9 C
22.10.2012 08:06 12,9 C 91 % 1024,7 hPa 0,0 l/m 4,7 km/h (1 Bft) O-NO 67 11,5 C 12,9 C
22.10.2012 08:11 12,9 C 91 % 1024,7 hPa 0,0 l/m 6,8 km/h (2 Bft) O 90 11,5 C 12,9 C
22.10.2012 08:16 12,9 C 91 % 1024,7 hPa 0,0 l/m 0,0 km/h (0 Bft) O-SO 112 11,5 C 12,9 C
22.10.2012 08:21 12,9 C 91 % 1024,7 hPa 0,0 l/m 3,2 km/h (1 Bft) O-NO 67 11,5 C 12,9 C
22.10.2012 08:26 12,8 C 91 % 1024,7 hPa 0,0 l/m 0,0 km/h (0 Bft) O 90 11,4 C 12,8 C
22.10.2012 08:31 12,8 C 91 % 1024,8 hPa 0,0 l/m 2,5 km/h (1 Bft) O-SO 112 11,4 C 12,8 C
22.10.2012 08:36 12,8 C 91 % 1024,8 hPa 0,0 l/m 4,7 km/h (1 Bft) NO 45 11,4 C 12,8 C
22.10.2012 08:41 12,8 C 92 % 1024,9 hPa 0,0 l/m 4,3 km/h (1 Bft) O-SO 112 11,5 C 12,8 C
22.10.2012 08:46 12,8 C 92 % 1025,0 hPa 0,0 l/m 5,0 km/h (1 Bft) O-NO 67 11,5 C 12,8 C
22.10.2012 08:51 12,8 C 92 % 1025,1 hPa 0,0 l/m 1,1 km/h (1 Bft) NO 45 11,5 C 12,8 C
22.10.2012 08:56 12,8 C 92 % 1025,1 hPa 0,0 l/m 5,0 km/h (1 Bft) O-SO 112 11,5 C 12,8 C
22.10.2012 09:01 12,9 C 92 % 1025,1 hPa 0,0 l/m 4,0 km/h (1 Bft) O 90 11,6 C 12,9 C
22.10.2012 09:06 12,8 C 92 % 1025,0 hPa 0,0 l/m 3,6 km/h (1 Bft) O-NO 67 11,5 C 12,8 C
22.10.2012 09:11 12,9 C 92 % 1025,1 hPa 0,0 l/m 5,8 km/h (2 Bft) O-SO 112 11,6 C 12,9 C
22.10.2012 09:16 12,9 C 92 % 1025,1 hPa 0,0 l/m 5,8 km/h (2 Bft) O-NO 67 11,6 C 12,9 C
22.10.2012 09:21 12,9 C 92 % 1025,1 hPa 0,0 l/m 0,0 km/h (0 Bft) O 90 11,6 C 12,9 C
22.10.2012 09:26 12,9 C 92 % 1025,1 hPa 0,0 l/m 6,5 km/h (2 Bft) NO 45 11,6 C 12,9 C
22.10.2012 09:31 12,9 C 92 % 1025,1 hPa 0,0 l/m 4,3 km/h (1 Bft) O-SO 112 11,6 C 12,9 C
22.10.2012 09:36 12,9 C 92 % 1025,1 hPa 0,0 l/m 3,6 km/h (1 Bft) O-NO 67 11,6 C 12,9 C
22.10.2012 09:41 12,9 C 92 % 1025,1 hPa 0,0 l/m 4,7 km/h (1 Bft) O-SO 112 11,6 C 12,9 C
22.10.2012 09:46 12,9 C 92 % 1025,1 hPa 0,0 l/m 5,8 km/h (2 Bft) O-SO 112 11,6 C 12,9 C
22.10.2012 09:51 13,0 C 92 % 1025,1 hPa 0,0 l/m 2,5 km/h (1 Bft) O 90 11,7 C 13,0 C
22.10.2012 09:56 13,1 C 91 % 1025,1 hPa 0,0 l/m 9,4 km/h (2 Bft) O-SO 112 11,7 C 13,1 C
22.10.2012 10:01 13,1 C 91 % 1025,1 hPa 0,0 l/m 7,2 km/h (2 Bft) O-SO 112 11,7 C 13,1 C
22.10.2012 10:06 13,1 C 91 % 1025,1 hPa 0,0 l/m 3,2 km/h (1 Bft) O-SO 112 11,7 C 13,1 C
22.10.2012 10:11 13,1 C 91 % 1025,1 hPa 0,0 l/m 4,0 km/h (1 Bft) O 90 11,7 C 13,1 C
22.10.2012 10:16 13,1 C 91 % 1025,2 hPa 0,0 l/m 5,8 km/h (2 Bft) NO 45 11,7 C 13,1 C
22.10.2012 10:21 13,1 C 91 % 1025,1 hPa 0,0 l/m 0,0 km/h (0 Bft) O-NO 67 11,7 C 13,1 C
22.10.2012 10:26 13,1 C 91 % 1025,0 hPa 0,0 l/m 2,5 km/h (1 Bft) O-NO 67 11,7 C 13,1 C
22.10.2012 10:31 13,1 C 91 % 1025,1 hPa 0,0 l/m 4,7 km/h (1 Bft) O-NO 67 11,7 C 13,1 C
22.10.2012 10:36 13,2 C 91 % 1025,1 hPa 0,0 l/m 1,8 km/h (1 Bft) O 90 11,8 C 13,2 C
22.10.2012 10:41 13,2 C 91 % 1025,1 hPa 0,0 l/m 2,5 km/h (1 Bft) NO 45 11,8 C 13,2 C
22.10.2012 10:46 13,2 C 91 % 1025,2 hPa 0,0 l/m 6,5 km/h (2 Bft) O-NO 67 11,8 C 13,2 C
22.10.2012 10:51 13,2 C 91 % 1025,1 hPa 0,0 l/m 6,1 km/h (2 Bft) O-SO 112 11,8 C 13,2 C
22.10.2012 10:56 13,2 C 91 % 1025,1 hPa 0,0 l/m 1,8 km/h (1 Bft) O-NO 67 11,8 C 13,2 C
22.10.2012 11:01 13,3 C 91 % 1025,1 hPa 0,0 l/m 8,3 km/h (2 Bft) O-SO 112 11,9 C 13,3 C
22.10.2012 11:06 13,4 C 91 % 1025,2 hPa 0,0 l/m 5,0 km/h (1 Bft) O 90 12,0 C 13,4 C
22.10.2012 11:11 13,4 C 91 % 1025,3 hPa 0,0 l/m 9,4 km/h (2 Bft) O 90 12,0 C 13,4 C
22.10.2012 11:16 13,4 C 91 % 1025,4 hPa 0,0 l/m 5,4 km/h (1 Bft) S-SO 157 12,0 C 13,4 C
22.10.2012 11:21 13,5 C 91 % 1025,4 hPa 0,0 l/m 5,0 km/h (1 Bft) O-NO 67 12,1 C 13,5 C
22.10.2012 11:26 13,6 C 91 % 1025,4 hPa 0,0 l/m 5,4 km/h (1 Bft) O-SO 112 12,2 C 13,6 C
22.10.2012 11:31 13,6 C 91 % 1025,5 hPa 0,0 l/m 3,2 km/h (1 Bft) O-NO 67 12,2 C 13,6 C
22.10.2012 11:36 13,6 C 91 % 1025,5 hPa 0,0 l/m 3,2 km/h (1 Bft) O-SO 112 12,2 C 13,6 C
22.10.2012 11:41 13,6 C 90 % 1025,6 hPa 0,0 l/m 4,0 km/h (1 Bft) O-SO 112 12,0 C 13,6 C
22.10.2012 11:46 13,6 C 90 % 1025,6 hPa 0,0 l/m 10,8 km/h (2 Bft) SO 135 12,0 C 13,6 C
22.10.2012 11:51 13,6 C 90 % 1025,6 hPa 0,0 l/m 10,4 km/h (2 Bft) SO 135 12,0 C 13,6 C
22.10.2012 11:56 13,6 C 90 % 1025,5 hPa 0,0 l/m 6,8 km/h (2 Bft) O-SO 112 12,0 C 13,6 C
22.10.2012 12:01 13,6 C 90 % 1025,7 hPa 0,0 l/m 5,8 km/h (2 Bft) SO 135 12,0 C 13,6 C
22.10.2012 12:06 13,5 C 90 % 1025,7 hPa 0,0 l/m 11,5 km/h (2 Bft) O 90 11,9 C 13,5 C
22.10.2012 12:11 13,6 C 90 % 1025,6 hPa 0,0 l/m 6,8 km/h (2 Bft) SO 135 12,0 C 13,6 C
22.10.2012 12:16 13,6 C 90 % 1025,6 hPa 0,0 l/m 8,3 km/h (2 Bft) O-SO 112 12,0 C 13,6 C
22.10.2012 12:21 13,6 C 90 % 1025,7 hPa 0,0 l/m 10,4 km/h (2 Bft) O-SO 112 12,0 C 13,6 C
22.10.2012 12:26 13,6 C 90 % 1025,6 hPa 0,0 l/m 6,1 km/h (2 Bft) S-SO 157 12,0 C 13,6 C
22.10.2012 12:31 13,7 C 90 % 1025,5 hPa 0,0 l/m 8,3 km/h (2 Bft) O-SO 112 12,1 C 13,7 C
22.10.2012 12:36 13,8 C 90 % 1025,5 hPa 0,0 l/m 3,6 km/h (1 Bft) SO 135 12,2 C 13,8 C
22.10.2012 12:41 13,8 C 90 % 1025,5 hPa 0,0 l/m 8,3 km/h (2 Bft) SO 135 12,2 C 13,8 C
22.10.2012 12:46 13,8 C 89 % 1025,5 hPa 0,0 l/m 5,8 km/h (2 Bft) SO 135 12,0 C 13,8 C
22.10.2012 12:51 13,8 C 89 % 1025,4 hPa 0,0 l/m 2,5 km/h (1 Bft) O 90 12,0 C 13,8 C
22.10.2012 12:56 13,8 C 89 % 1025,5 hPa 0,0 l/m 5,4 km/h (1 Bft) SO 135 12,0 C 13,8 C
22.10.2012 13:01 13,8 C 89 % 1025,4 hPa 0,0 l/m 3,6 km/h (1 Bft) O-SO 112 12,0 C 13,8 C
22.10.2012 13:06 13,8 C 89 % 1025,5 hPa 0,0 l/m 6,8 km/h (2 Bft) O-NO 67 12,0 C 13,8 C
22.10.2012 13:11 13,8 C 90 % 1025,4 hPa 0,0 l/m 6,1 km/h (2 Bft) SO 135 12,2 C 13,8 C
22.10.2012 13:16 13,8 C 90 % 1025,5 hPa 0,0 l/m 6,5 km/h (2 Bft) O 90 12,2 C 13,8 C
22.10.2012 13:21 13,8 C 89 % 1025,5 hPa 0,0 l/m 10,1 km/h (2 Bft) O-NO 67 12,0 C 13,8 C
22.10.2012 13:26 13,8 C 89 % 1025,5 hPa 0,0 l/m 2,5 km/h (1 Bft) SO 135 12,0 C 13,8 C
22.10.2012 13:31 13,8 C 89 % 1025,4 hPa 0,0 l/m 6,8 km/h (2 Bft) S-SO 157 12,0 C 13,8 C
22.10.2012 13:36 13,8 C 89 % 1025,5 hPa 0,0 l/m 4,0 km/h (1 Bft) O-SO 112 12,0 C 13,8 C
22.10.2012 13:41 13,8 C 89 % 1025,5 hPa 0,0 l/m 3,6 km/h (1 Bft) O-SO 112 12,0 C 13,8 C
22.10.2012 13:46 13,8 C 89 % 1025,5 hPa 0,0 l/m 2,5 km/h (1 Bft) SO 135 12,0 C 13,8 C
22.10.2012 13:51 13,8 C 90 % 1025,7 hPa 0,0 l/m 3,6 km/h (1 Bft) O-SO 112 12,2 C 13,8 C
22.10.2012 13:56 13,8 C 90 % 1025,5 hPa 0,0 l/m 2,5 km/h (1 Bft) O-SO 112 12,2 C 13,8 C
22.10.2012 14:01 13,8 C 90 % 1025,7 hPa 0,0 l/m 6,1 km/h (2 Bft) O-SO 112 12,2 C 13,8 C
22.10.2012 14:06 13,8 C 90 % 1025,5 hPa 0,0 l/m 6,5 km/h (2 Bft) SO 135 12,2 C 13,8 C
22.10.2012 14:11 13,8 C 90 % 1025,5 hPa 0,0 l/m 3,2 km/h (1 Bft) O-SO 112 12,2 C 13,8 C
22.10.2012 14:16 13,8 C 89 % 1025,5 hPa 0,0 l/m 7,9 km/h (2 Bft) SO 135 12,0 C 13,8 C
22.10.2012 14:21 13,6 C 89 % 1025,5 hPa 0,0 l/m 11,5 km/h (2 Bft) SO 135 11,8 C 13,6 C
22.10.2012 14:26 13,6 C 89 % 1025,3 hPa 0,0 l/m 6,1 km/h (2 Bft) SO 135 11,8 C 13,6 C
22.10.2012 14:31 13,6 C 89 % 1025,4 hPa 0,0 l/m 6,1 km/h (2 Bft) S-SO 157 11,8 C 13,6 C
22.10.2012 14:36 13,6 C 88 % 1025,5 hPa 0,0 l/m 7,2 km/h (2 Bft) SO 135 11,6 C 13,6 C
22.10.2012 14:41 13,6 C 88 % 1025,5 hPa 0,0 l/m 11,5 km/h (2 Bft) S-SO 157 11,6 C 13,6 C
22.10.2012 14:46 13,7 C 88 % 1025,7 hPa 0,0 l/m 9,0 km/h (2 Bft) SO 135 11,7 C 13,7 C
22.10.2012 14:51 13,6 C 88 % 1025,7 hPa 0,0 l/m 3,6 km/h (1 Bft) S-SO 157 11,6 C 13,6 C
22.10.2012 14:56 13,6 C 88 % 1025,8 hPa 0,0 l/m 2,5 km/h (1 Bft) S-SO 157 11,6 C 13,6 C
22.10.2012 15:01 13,7 C 88 % 1025,7 hPa 0,0 l/m 6,5 km/h (2 Bft) SO 135 11,7 C 13,7 C
22.10.2012 15:06 13,7 C 88 % 1025,8 hPa 0,0 l/m 5,4 km/h (1 Bft) S-SO 157 11,7 C 13,7 C
22.10.2012 15:11 13,6 C 88 % 1025,8 hPa 0,0 l/m 2,5 km/h (1 Bft) S-SO 157 11,6 C 13,6 C
22.10.2012 15:16 13,7 C 88 % 1025,9 hPa 0,0 l/m 5,8 km/h (2 Bft) O-SO 112 11,7 C 13,7 C
22.10.2012 15:21 13,6 C 88 % 1025,9 hPa 0,0 l/m 7,2 km/h (2 Bft) SO 135 11,6 C 13,6 C
22.10.2012 15:26 13,6 C 88 % 1025,9 hPa 0,0 l/m 6,5 km/h (2 Bft) SO 135 11,6 C 13,6 C
22.10.2012 15:31 13,6 C 88 % 1025,9 hPa 0,0 l/m 1,4 km/h (1 Bft) O-SO 112 11,6 C 13,6 C
22.10.2012 15:36 13,6 C 88 % 1025,9 hPa 0,0 l/m 10,8 km/h (2 Bft) O-SO 112 11,6 C 13,6 C
22.10.2012 15:41 13,6 C 88 % 1026,0 hPa 0,0 l/m 2,9 km/h (1 Bft) O-SO 112 11,6 C 13,6 C
22.10.2012 15:46 13,6 C 87 % 1025,7 hPa 0,0 l/m 4,7 km/h (1 Bft) SO 135 11,5 C 13,6 C
22.10.2012 15:51 13,6 C 87 % 1025,9 hPa 0,0 l/m 3,2 km/h (1 Bft) SO 135 11,5 C 13,6 C
22.10.2012 15:56 13,6 C 87 % 1025,9 hPa 0,0 l/m 1,8 km/h (1 Bft) S-SO 157 11,5 C 13,6 C
22.10.2012 16:01 13,6 C 87 % 1025,9 hPa 0,0 l/m 2,9 km/h (1 Bft) SO 135 11,5 C 13,6 C
22.10.2012 16:06 13,6 C 87 % 1025,9 hPa 0,0 l/m 8,6 km/h (2 Bft) SO 135 11,5 C 13,6 C
22.10.2012 16:11 13,6 C 87 % 1025,9 hPa 0,0 l/m 7,2 km/h (2 Bft) S-SO 157 11,5 C 13,6 C
22.10.2012 16:16 13,5 C 87 % 1025,8 hPa 0,0 l/m 4,0 km/h (1 Bft) O-SO 112 11,4 C 13,5 C
22.10.2012 16:21 13,5 C 87 % 1025,8 hPa 0,0 l/m 3,6 km/h (1 Bft) S-SO 157 11,4 C 13,5 C
22.10.2012 16:26 13,5 C 87 % 1025,9 hPa 0,0 l/m 5,8 km/h (2 Bft) SO 135 11,4 C 13,5 C
22.10.2012 16:31 13,5 C 87 % 1025,8 hPa 0,0 l/m 4,3 km/h (1 Bft) SO 135 11,4 C 13,5 C
22.10.2012 16:36 13,5 C 88 % 1025,8 hPa 0,0 l/m 5,4 km/h (1 Bft) O 90 11,6 C 13,5 C
22.10.2012 16:41 13,5 C 88 % 1025,8 hPa 0,0 l/m 4,0 km/h (1 Bft) O-NO 67 11,6 C 13,5 C
22.10.2012 16:46 13,5 C 87 % 1026,0 hPa 0,0 l/m 2,2 km/h (1 Bft) O-SO 112 11,4 C 13,5 C
22.10.2012 16:51 13,4 C 87 % 1025,9 hPa 0,0 l/m 1,8 km/h (1 Bft) O-SO 112 11,3 C 13,4 C
22.10.2012 16:56 13,4 C 88 % 1026,1 hPa 0,0 l/m 7,9 km/h (2 Bft) SO 135 11,5 C 13,4 C
22.10.2012 17:01 13,4 C 88 % 1025,8 hPa 0,0 l/m 4,3 km/h (1 Bft) O-SO 112 11,5 C 13,4 C
22.10.2012 17:06 13,4 C 88 % 1026,0 hPa 0,0 l/m 2,9 km/h (1 Bft) SO 135 11,5 C 13,4 C
22.10.2012 17:11 13,3 C 88 % 1026,0 hPa 0,0 l/m 5,4 km/h (1 Bft) O 90 11,4 C 13,3 C
22.10.2012 17:16 13,3 C 88 % 1026,1 hPa 0,0 l/m 2,2 km/h (1 Bft) SO 135 11,4 C 13,3 C
22.10.2012 17:21 13,3 C 88 % 1025,9 hPa 0,0 l/m 6,8 km/h (2 Bft) SO 135 11,4 C 13,3 C
22.10.2012 17:26 13,3 C 88 % 1026,0 hPa 0,0 l/m 3,6 km/h (1 Bft) SO 135 11,4 C 13,3 C
22.10.2012 17:31 13,3 C 88 % 1026,1 hPa 0,0 l/m 5,4 km/h (1 Bft) O 90 11,4 C 13,3 C
22.10.2012 17:36 13,3 C 88 % 1026,1 hPa 0,0 l/m 3,6 km/h (1 Bft) SO 135 11,4 C 13,3 C
22.10.2012 17:41 13,3 C 88 % 1026,1 hPa 0,0 l/m 3,6 km/h (1 Bft) SO 135 11,4 C 13,3 C
22.10.2012 17:46 13,2 C 88 % 1026,1 hPa 0,0 l/m 4,0 km/h (1 Bft) SO 135 11,3 C 13,2 C
22.10.2012 17:51 13,2 C 88 % 1026,1 hPa 0,0 l/m 3,6 km/h (1 Bft) S-SO 157 11,3 C 13,2 C
22.10.2012 17:56 13,2 C 88 % 1026,1 hPa 0,0 l/m 3,6 km/h (1 Bft) S-SO 157 11,3 C 13,2 C
22.10.2012 18:01 13,1 C 88 % 1026,1 hPa 0,0 l/m 4,7 km/h (1 Bft) SO 135 11,2 C 13,1 C
22.10.2012 18:06 13,1 C 88 % 1026,2 hPa 0,0 l/m 4,0 km/h (1 Bft) S-SO 157 11,2 C 13,1 C
22.10.2012 18:11 13,1 C 88 % 1026,1 hPa 0,0 l/m 8,3 km/h (2 Bft) SO 135 11,2 C 13,1 C
22.10.2012 18:16 13,1 C 88 % 1026,2 hPa 0,0 l/m 1,8 km/h (1 Bft) SO 135 11,2 C 13,1 C
22.10.2012 18:21 13,1 C 88 % 1026,3 hPa 0,0 l/m 1,8 km/h (1 Bft) SO 135 11,2 C 13,1 C
22.10.2012 18:26 13,1 C 88 % 1026,3 hPa 0,0 l/m 2,5 km/h (1 Bft) SO 135 11,2 C 13,1 C
22.10.2012 18:31 13,1 C 88 % 1026,3 hPa 0,0 l/m 4,0 km/h (1 Bft) S-SO 157 11,2 C 13,1 C
22.10.2012 18:36 13,1 C 88 % 1026,3 hPa 0,0 l/m 2,9 km/h (1 Bft) SO 135 11,2 C 13,1 C
22.10.2012 18:41 13,1 C 89 % 1026,2 hPa 0,0 l/m 0,0 km/h (0 Bft) O 90 11,3 C 13,1 C
22.10.2012 18:46 13,0 C 89 % 1026,2 hPa 0,0 l/m 1,8 km/h (1 Bft) O-SO 112 11,2 C 13,0 C
22.10.2012 18:51 13,0 C 89 % 1026,3 hPa 0,0 l/m 2,5 km/h (1 Bft) SO 135 11,2 C 13,0 C
22.10.2012 18:56 12,9 C 89 % 1026,2 hPa 0,0 l/m 0,0 km/h (0 Bft) SO 135 11,1 C 12,9 C
22.10.2012 19:01 12,9 C 89 % 1026,2 hPa 0,0 l/m 2,5 km/h (1 Bft) SO 135 11,1 C 12,9 C
22.10.2012 19:06 12,9 C 89 % 1026,4 hPa 0,0 l/m 0,0 km/h (0 Bft) SO 135 11,1 C 12,9 C
22.10.2012 19:11 12,9 C 89 % 1026,4 hPa 0,0 l/m 3,2 km/h (1 Bft) O-SO 112 11,1 C 12,9 C
22.10.2012 19:16 12,9 C 89 % 1026,4 hPa 0,0 l/m 1,1 km/h (1 Bft) SO 135 11,1 C 12,9 C
22.10.2012 19:21 12,9 C 89 % 1026,3 hPa 0,0 l/m 7,6 km/h (2 Bft) SO 135 11,1 C 12,9 C
22.10.2012 19:26 12,9 C 89 % 1026,5 hPa 0,0 l/m 4,0 km/h (1 Bft) S-SO 157 11,1 C 12,9 C
22.10.2012 19:31 12,9 C 89 % 1026,5 hPa 0,0 l/m 6,1 km/h (2 Bft) SO 135 11,1 C 12,9 C
22.10.2012 19:36 12,9 C 89 % 1026,6 hPa 0,0 l/m 10,8 km/h (2 Bft) S-SO 157 11,1 C 12,9 C
22.10.2012 19:41 12,9 C 89 % 1026,6 hPa 0,0 l/m 2,9 km/h (1 Bft) O-SO 112 11,1 C 12,9 C
22.10.2012 19:46 12,9 C 90 % 1026,5 hPa 0,0 l/m 11,2 km/h (2 Bft) SO 135 11,3 C 12,9 C
22.10.2012 19:51 12,9 C 90 % 1026,7 hPa 0,0 l/m 4,3 km/h (1 Bft) S-SO 157 11,3 C 12,9 C
22.10.2012 19:56 12,9 C 90 % 1026,7 hPa 0,0 l/m 4,0 km/h (1 Bft) SO 135 11,3 C 12,9 C
22.10.2012 20:01 12,8 C 90 % 1026,8 hPa 0,0 l/m 1,8 km/h (1 Bft) SO 135 11,2 C 12,8 C
22.10.2012 20:06 12,9 C 90 % 1026,7 hPa 0,0 l/m 2,2 km/h (1 Bft) SO 135 11,3 C 12,9 C
22.10.2012 20:11 12,8 C 90 % 1026,8 hPa 0,0 l/m 5,4 km/h (1 Bft) O-SO 112 11,2 C 12,8 C
22.10.2012 20:16 12,8 C 90 % 1026,9 hPa 0,0 l/m 4,0 km/h (1 Bft) SO 135 11,2 C 12,8 C
22.10.2012 20:21 12,8 C 90 % 1026,9 hPa 0,0 l/m 1,4 km/h (1 Bft) O-SO 112 11,2 C 12,8 C
22.10.2012 20:26 12,8 C 90 % 1026,8 hPa 0,0 l/m 3,6 km/h (1 Bft) O-SO 112 11,2 C 12,8 C
22.10.2012 20:31 12,7 C 90 % 1026,7 hPa 0,0 l/m 5,0 km/h (1 Bft) S-SO 157 11,1 C 12,7 C
22.10.2012 20:36 12,7 C 90 % 1026,6 hPa 0,0 l/m 2,9 km/h (1 Bft) S-SO 157 11,1 C 12,7 C
22.10.2012 20:41 12,7 C 90 % 1026,7 hPa 0,0 l/m 5,0 km/h (1 Bft) O-SO 112 11,1 C 12,7 C
22.10.2012 20:46 12,7 C 90 % 1026,6 hPa 0,0 l/m 4,0 km/h (1 Bft) O-SO 112 11,1 C 12,7 C
22.10.2012 20:51 12,6 C 90 % 1026,6 hPa 0,0 l/m 0,0 km/h (0 Bft) O-SO 112 11,0 C 12,6 C
22.10.2012 20:56 12,6 C 90 % 1026,5 hPa 0,0 l/m 2,9 km/h (1 Bft) SO 135 11,0 C 12,6 C
22.10.2012 21:01 12,6 C 90 % 1026,7 hPa 0,0 l/m 4,7 km/h (1 Bft) S-SO 157 11,0 C 12,6 C
22.10.2012 21:06 12,6 C 90 % 1026,6 hPa 0,0 l/m 3,2 km/h (1 Bft) O-SO 112 11,0 C 12,6 C
22.10.2012 21:11 12,6 C 90 % 1026,7 hPa 0,0 l/m 2,9 km/h (1 Bft) O-SO 112 11,0 C 12,6 C
22.10.2012 21:16 12,5 C 90 % 1026,8 hPa 0,0 l/m 3,6 km/h (1 Bft) O-SO 112 10,9 C 12,5 C
22.10.2012 21:21 12,5 C 90 % 1026,8 hPa 0,0 l/m 2,2 km/h (1 Bft) O-SO 112 10,9 C 12,5 C
22.10.2012 21:26 12,5 C 91 % 1026,8 hPa 0,0 l/m 3,6 km/h (1 Bft) O-SO 112 11,1 C 12,5 C
22.10.2012 21:31 12,5 C 91 % 1026,8 hPa 0,0 l/m 0,0 km/h (0 Bft) SO 135 11,1 C 12,5 C
22.10.2012 21:36 12,5 C 91 % 1026,8 hPa 0,0 l/m 3,6 km/h (1 Bft) S-SO 157 11,1 C 12,5 C
22.10.2012 21:41 12,5 C 91 % 1026,9 hPa 0,0 l/m 0,0 km/h (0 Bft) S-SO 157 11,1 C 12,5 C
22.10.2012 21:46 12,4 C 91 % 1026,8 hPa 0,0 l/m 1,8 km/h (1 Bft) SO 135 11,0 C 12,4 C
22.10.2012 21:51 12,4 C 91 % 1026,8 hPa 0,0 l/m 3,2 km/h (1 Bft) O-SO 112 11,0 C 12,4 C
22.10.2012 21:56 12,4 C 91 % 1026,8 hPa 0,0 l/m 0,0 km/h (0 Bft) O-SO 112 11,0 C 12,4 C
22.10.2012 22:01 12,4 C 91 % 1026,8 hPa 0,0 l/m 0,0 km/h (0 Bft) O-SO 112 11,0 C 12,4 C
22.10.2012 22:06 12,4 C 91 % 1026,9 hPa 0,0 l/m 0,0 km/h (0 Bft) SO 135 11,0 C 12,4 C
22.10.2012 22:11 12,4 C 91 % 1026,9 hPa 0,0 l/m 0,0 km/h (0 Bft) O-SO 112 11,0 C 12,4 C
22.10.2012 22:16 12,4 C 92 % 1026,9 hPa 0,0 l/m 0,0 km/h (0 Bft) O-SO 112 11,1 C 12,4 C
22.10.2012 22:21 12,4 C 92 % 1027,0 hPa 0,0 l/m 7,6 km/h (2 Bft) O-SO 112 11,1 C 12,4 C
22.10.2012 22:26 12,4 C 92 % 1027,0 hPa 0,0 l/m 0,0 km/h (0 Bft) O-SO 112 11,1 C 12,4 C
22.10.2012 22:31 12,4 C 92 % 1027,1 hPa 0,0 l/m 0,0 km/h (0 Bft) O-SO 112 11,1 C 12,4 C
22.10.2012 22:36 12,4 C 92 % 1027,2 hPa 0,0 l/m 0,0 km/h (0 Bft) SO 135 11,1 C 12,4 C
22.10.2012 22:41 12,4 C 92 % 1027,2 hPa 0,0 l/m 2,9 km/h (1 Bft) O 90 11,1 C 12,4 C
22.10.2012 22:46 12,4 C 92 % 1027,2 hPa 0,0 l/m 1,8 km/h (1 Bft) O-SO 112 11,1 C 12,4 C
22.10.2012 22:51 12,4 C 92 % 1027,2 hPa 0,0 l/m 1,4 km/h (1 Bft) O 90 11,1 C 12,4 C
22.10.2012 22:56 12,4 C 92 % 1027,1 hPa 0,0 l/m 3,6 km/h (1 Bft) SO 135 11,1 C 12,4 C
22.10.2012 23:01 12,4 C 92 % 1027,1 hPa 0,0 l/m 1,8 km/h (1 Bft) SO 135 11,1 C 12,4 C
22.10.2012 23:06 12,4 C 92 % 1027,2 hPa 0,0 l/m 1,1 km/h (1 Bft) SO 135 11,1 C 12,4 C
22.10.2012 23:11 12,4 C 92 % 1027,2 hPa 0,0 l/m 3,6 km/h (1 Bft) O-SO 112 11,1 C 12,4 C
22.10.2012 23:16 12,4 C 92 % 1027,2 hPa 0,0 l/m 1,8 km/h (1 Bft) O-SO 112 11,1 C 12,4 C
22.10.2012 23:21 12,3 C 92 % 1027,2 hPa 0,0 l/m 2,9 km/h (1 Bft) O-SO 112 11,0 C 12,3 C
22.10.2012 23:26 12,3 C 92 % 1027,2 hPa 0,0 l/m 5,0 km/h (1 Bft) SO 135 11,0 C 12,3 C
22.10.2012 23:31 12,3 C 92 % 1027,3 hPa 0,0 l/m 0,0 km/h (0 Bft) S-SO 157 11,0 C 12,3 C
22.10.2012 23:36 12,3 C 92 % 1027,3 hPa 0,0 l/m 1,4 km/h (1 Bft) SO 135 11,0 C 12,3 C
22.10.2012 23:41 12,3 C 92 % 1027,3 hPa 0,0 l/m 2,2 km/h (1 Bft) SO 135 11,0 C 12,3 C
22.10.2012 23:46 12,3 C 92 % 1027,4 hPa 0,0 l/m 0,0 km/h (0 Bft) SO 135 11,0 C 12,3 C
22.10.2012 23:51 12,3 C 92 % 1027,3 hPa 0,0 l/m 2,2 km/h (1 Bft) O-SO 112 11,0 C 12,3 C
22.10.2012 23:56 12,3 C 92 % 1027,2 hPa 0,0 l/m 0,0 km/h (0 Bft) SO 135 11,0 C 12,3 C
_ Min-Zeit 23:21 15:46 00:01 - 01:16 - - 21:16 23:21
Minimum _ 12,3 C 87 % 1022,9 hPa - 0,0 km/h (0 Bft) - - 10,9 C 12,3 C
_ Max-Zeit 12:36 01:21 23:46 00:01 00:21 - - 12:36 12:36
Maximum _ 13,8 C 92 % 1027,4 hPa 0,0 l/m 16,2 km/h
O (3 Bft)
- - 12,2 C 13,8 C
Durchschnitt _ 13,0 C 90 % 1025,2 hPa #0,0 l/m 4,6 km/h (1 Bft) O-SO - 11,5 C 13,0 C
(c) by David Heller